Weather History for Luverne, MN

Change the Weather History Date:

Sunday, February 3, 2013

  Actual Average (KFSD) Record (KFSD)
Temperature  
Mean Temperature 21 °F 18 °F  
Max Temperature 32 °F 28 °F 58 °F (2005)
Min Temperature 10 °F 8 °F -35 °F (1917)
Degree Days  
Heating Degree Days 44 47  
Month to date heating degree days 141  
Since 1 July heating degree days 4773  
Cooling Degree Days 0 0  
Month to date cooling degree days 0  
Year to date cooling degree days 0  
Moisture  
Dew Point 15 °F    
Average Humidity 76    
Maximum Humidity 86    
Minimum Humidity 64    
Precipitation  
Precipitation 0.00 in 0.02 in 0.66 in (1997)
Month to date precipitation 0.06  
Year to date precipitation 0.62  
Snow  
Snow 0.00 in 0.30 in 8.40 in (1997)
Month to date snowfall 0.8  
Since 1 July snowfall 25.4  
Snow Depth -    
Sea Level Pressure  
Sea Level Pressure 29.97 in    
Wind  
Wind Speed 12 mph (NNE)    
Max Wind Speed 20 mph    
Max Gust Speed 25 mph    
Visibility 10 miles    
Events Snow    
T = Trace of Precipitation, MM = Missing Value Source: NWS Daily Summary

Daily Weather History Graph

Daily Weather History Graph

Search for Another Location

Airport:

Trip Planner

Search our weather history database for the weather conditions in past years. The results will help you decide how hot, cold, wet, or windy it might be!

Date:

Astronomy

Feb. 03, 2013 Rise Set
Actual Time 7:38 AM CST 5:39 PM CST
Civil Twilight 7:08 AM CST 6:09 PM CST
Nautical Twilight 6:34 AM CST 6:43 PM CST
Astronomical Twilight 6:00 AM CST 7:17 PM CST
Moon 1:08 AM CST (2/3) 11:16 AM CST (2/3)
Length of Visible Light 11h 01m
Length of Day
10h 00m
Waning Gibbous, 48% of the Moon is Illuminated
Feb 3
Waning Gibbous
Feb 10
New
Feb 17
First Quarter
Feb 25
Full
Mar 4
Last Quarter

Hourly Weather History & Observations

Time (CST) Temp. Windchill Dew Point Humidity Pressure Visibility Wind Dir Wind Speed Gust Speed Precip Events Conditions
12:16 AM 21.2 °F 6.0 °F 15.8 °F 80% 30.09 in 5.0 mi NNW 19.6 mph 25.3 mph N/A Snow Light Snow
12:36 AM 21.2 °F 7.8 °F 15.8 °F 80% 30.09 in 7.0 mi NNW 15.0 mph 25.3 mph N/A   Overcast
12:56 AM 21.2 °F 6.4 °F 14.0 °F 74% 30.10 in 10.0 mi NNW 18.4 mph 23.0 mph N/A   Overcast
1:16 AM 21.2 °F 8.3 °F 15.8 °F 80% 30.11 in 1.8 mi NW 13.8 mph - N/A Snow Light Snow
1:36 AM 21.2 °F 6.8 °F 14.0 °F 74% 30.11 in 10.0 mi NW 17.3 mph 23.0 mph N/A Snow Light Snow
1:56 AM 19.4 °F 5.5 °F 12.2 °F 74% 30.11 in 10.0 mi NW 15.0 mph - N/A   Scattered Clouds
2:16 AM 17.6 °F 3.2 °F 12.2 °F 79% 30.11 in 10.0 mi WNW 15.0 mph - N/A   Clear
2:36 AM 17.6 °F 5.0 °F 10.4 °F 73% 30.11 in 10.0 mi WNW 11.5 mph 19.6 mph N/A   Clear
2:56 AM 15.8 °F 1.4 °F 10.4 °F 79% 30.12 in 10.0 mi NW 13.8 mph 18.4 mph N/A   Clear
3:16 AM 14.0 °F -0.8 °F 10.4 °F 86% 30.12 in 10.0 mi NW 13.8 mph - N/A   Clear
3:37 AM 14.0 °F 0.5 °F 8.6 °F 79% 30.11 in 10.0 mi NW 11.5 mph - N/A   Clear
3:56 AM 14.0 °F -1.4 °F 8.6 °F 79% 30.11 in 10.0 mi WNW 15.0 mph - N/A   Clear
4:16 AM 12.2 °F -3.1 °F 8.6 °F 85% 30.11 in 10.0 mi WNW 13.8 mph - N/A   Clear
4:37 AM 12.2 °F -3.1 °F 6.8 °F 79% 30.11 in 10.0 mi WNW 13.8 mph - N/A   Clear
4:56 AM 12.2 °F -1.8 °F 6.8 °F 79% 30.11 in 10.0 mi NW 11.5 mph - N/A   Clear
5:16 AM 12.2 °F -1.8 °F 5.0 °F 73% 30.12 in 10.0 mi WNW 11.5 mph - N/A   Clear
5:37 AM 12.2 °F -1.0 °F 6.8 °F 79% 30.11 in 10.0 mi WNW 10.4 mph - N/A   Clear
6:16 AM 10.4 °F -0.4 °F 5.0 °F 79% 30.10 in 10.0 mi SW 6.9 mph - N/A   Mostly Cloudy
6:36 AM 12.2 °F 6.1 °F 6.8 °F 79% 30.09 in 10.0 mi West 3.5 mph - N/A   Overcast
6:56 AM 14.0 °F 8.2 °F 8.6 °F 79% 30.08 in 10.0 mi West 3.5 mph - N/A   Overcast
7:16 AM 14.0 °F 6.5 °F 8.6 °F 79% 30.08 in 10.0 mi SW 4.6 mph - N/A   Overcast
7:36 AM 14.0 °F - 8.6 °F 79% 30.09 in 10.0 mi Calm Calm - N/A   Overcast
7:56 AM 15.8 °F 6.1 °F 10.4 °F 79% 30.08 in 10.0 mi WSW 6.9 mph - N/A   Overcast
8:17 AM 17.6 °F 7.3 °F 10.4 °F 73% 30.08 in 10.0 mi West 8.1 mph - N/A   Overcast
8:36 AM 17.6 °F 9.3 °F 10.4 °F 73% 30.07 in 10.0 mi WSW 5.8 mph - N/A   Overcast
8:56 AM 17.6 °F 7.3 °F 10.4 °F 73% 30.07 in 10.0 mi West 8.1 mph - N/A   Overcast
9:16 AM 17.6 °F 8.2 °F 10.4 °F 73% 30.06 in 10.0 mi West 6.9 mph - N/A   Overcast
9:36 AM 19.4 °F 12.8 °F 12.2 °F 74% 30.08 in 10.0 mi WNW 4.6 mph - N/A   Overcast
9:57 AM 19.4 °F 12.8 °F 12.2 °F 74% 30.07 in 10.0 mi West 4.6 mph - N/A   Overcast
10:16 AM 19.4 °F 11.5 °F 12.2 °F 74% 30.07 in 10.0 mi West 5.8 mph - N/A   Overcast
10:36 AM 21.2 °F 13.6 °F 14.0 °F 74% 30.07 in 10.0 mi SW 5.8 mph - N/A   Mostly Cloudy
10:56 AM 23.0 °F 13.1 °F 14.0 °F 68% 30.05 in 10.0 mi SW 9.2 mph - N/A   Scattered Clouds
11:16 AM 23.0 °F 14.7 °F 15.8 °F 74% 30.04 in 10.0 mi SSW 6.9 mph - N/A   Clear
11:36 AM 24.8 °F 19.1 °F 15.8 °F 69% 30.02 in 10.0 mi South 4.6 mph - N/A   Clear
11:56 AM 26.6 °F 22.6 °F 15.8 °F 64% 30.00 in 10.0 mi South 3.5 mph - N/A   Clear
12:16 PM 26.6 °F 22.6 °F 15.8 °F 64% 29.98 in 10.0 mi SSE 3.5 mph - N/A   Scattered Clouds
12:36 PM 26.6 °F 20.0 °F 17.6 °F 69% 29.97 in 10.0 mi SE 5.8 mph - N/A   Mostly Cloudy
12:56 PM 28.4 °F 21.2 °F 17.6 °F 64% 29.96 in 10.0 mi SSE 6.9 mph - N/A   Scattered Clouds
1:16 PM 28.4 °F 21.2 °F 17.6 °F 64% 29.95 in 10.0 mi SSE 6.9 mph - N/A   Scattered Clouds
1:36 PM 28.4 °F 20.4 °F 17.6 °F 64% 29.93 in 10.0 mi SE 8.1 mph - N/A   Scattered Clouds
1:57 PM 28.4 °F 20.4 °F 19.4 °F 69% 29.92 in 10.0 mi SSE 8.1 mph - N/A   Scattered Clouds
2:16 PM 28.4 °F 19.7 °F 19.4 °F 69% 29.90 in 10.0 mi SE 9.2 mph - N/A   Mostly Cloudy
2:36 PM 28.4 °F 20.4 °F 21.2 °F 74% 29.90 in 10.0 mi SE 8.1 mph - N/A   Overcast
2:57 PM 30.2 °F 21.9 °F 23.0 °F 75% 29.88 in 10.0 mi ESE 9.2 mph - N/A   Overcast
3:16 PM 30.2 °F 21.3 °F 23.0 °F 75% 29.87 in 10.0 mi ESE 10.4 mph - N/A   Overcast
3:36 PM 32.0 °F 24.2 °F 24.8 °F 75% 29.85 in 10.0 mi SE 9.2 mph - N/A   Overcast
3:57 PM 32.0 °F 24.8 °F 24.8 °F 75% 29.85 in 10.0 mi East 8.1 mph - N/A   Mostly Cloudy
4:16 PM 32.0 °F 24.2 °F 26.6 °F 80% 29.84 in 10.0 mi East 9.2 mph - N/A   Scattered Clouds
4:36 PM 32.0 °F 24.8 °F 26.6 °F 80% 29.83 in 10.0 mi East 8.1 mph - N/A   Clear
4:56 PM 32.0 °F 24.2 °F 26.6 °F 80% 29.82 in 10.0 mi ENE 9.2 mph - N/A   Clear
5:16 PM 32.0 °F 24.2 °F 26.6 °F 80% 29.81 in 10.0 mi ENE 9.2 mph - N/A   Clear
5:56 PM 28.4 °F 17.5 °F 21.2 °F 74% 29.82 in 10.0 mi ENE 13.8 mph - N/A   Clear
6:16 PM 26.6 °F 16.2 °F 21.2 °F 80% 29.81 in 10.0 mi ENE 11.5 mph - N/A   Mostly Cloudy
6:36 PM 26.6 °F 17.5 °F 21.2 °F 80% 29.80 in 10.0 mi ENE 9.2 mph - N/A   Overcast
6:56 PM 26.6 °F 15.7 °F 21.2 °F 80% 29.81 in 10.0 mi ENE 12.7 mph - N/A   Mostly Cloudy
7:16 PM 26.6 °F 17.5 °F 21.2 °F 80% 29.80 in 10.0 mi ENE 9.2 mph - N/A   Clear
7:36 PM 26.6 °F 18.2 °F 19.4 °F 74% 29.80 in 10.0 mi ENE 8.1 mph - N/A   Clear
7:56 PM 26.6 °F 17.5 °F 19.4 °F 74% 29.80 in 10.0 mi ENE 9.2 mph - N/A   Scattered Clouds
8:16 PM 26.6 °F 18.2 °F 19.4 °F 74% 29.80 in 10.0 mi NE 8.1 mph - N/A   Overcast
8:36 PM 24.8 °F 16.1 °F 19.4 °F 80% 29.80 in 10.0 mi NE 8.1 mph - N/A   Overcast
8:56 PM 24.8 °F 15.3 °F 19.4 °F 80% 29.79 in 10.0 mi East 9.2 mph - N/A   Overcast
9:16 PM 24.8 °F 15.3 °F 19.4 °F 80% 29.79 in 10.0 mi ENE 9.2 mph - N/A   Mostly Cloudy
9:36 PM 24.8 °F 15.3 °F 19.4 °F 80% 29.80 in 10.0 mi NE 9.2 mph - N/A   Overcast
9:56 PM 23.0 °F 10.1 °F 19.4 °F 86% 29.82 in 10.0 mi NNE 15.0 mph - N/A   Overcast
10:16 PM 21.2 °F 7.8 °F 17.6 °F 86% 29.81 in 10.0 mi NE 15.0 mph 23.0 mph N/A   Overcast
10:36 PM 21.2 °F 6.8 °F 15.8 °F 80% 29.81 in 10.0 mi NE 17.3 mph 24.2 mph N/A   Scattered Clouds
10:57 PM 19.4 °F 6.6 °F 14.0 °F 80% 29.82 in 10.0 mi NE 12.7 mph 21.9 mph N/A   Scattered Clouds
11:16 PM 17.6 °F 2.7 °F 14.0 °F 86% 29.82 in 10.0 mi NE 16.1 mph 23.0 mph N/A   Mostly Cloudy
11:36 PM 17.6 °F 3.7 °F 14.0 °F 86% 29.84 in 10.0 mi NE 13.8 mph 20.7 mph N/A   Overcast
11:56 PM 17.6 °F 3.7 °F 14.0 °F 86% 29.84 in 10.0 mi NE 13.8 mph - N/A   Overcast